Regional Weather Roundup
Issued by NWS

Home | Current Version | Previous Version | Graphics & Text | Print | Product List | Glossary On
Versions: 1 2 3 4 5 6 7 8 9 10 11 12 13 14 15 16 17 18 19 20 21 22 23 24 25 26 27 28 29 30 31 32 33 34 35 36 37 38 39 40 41 42 43 44 45 46 47 48 49 50
000
ASUS43 KFSD 240010
RWRSD

WEATHER ROUNDUP FOR SOUTH DAKOTA
NATIONAL WEATHER SERVICE SIOUX FALLS SD
600 PM CST THU NOV 23 2017

NOTE: "FAIR" INDICATES FEW OR NO CLOUDS BELOW 12,000 FEET WITH NO
SIGNIFICANT WEATHER AND/OR OBSTRUCTIONS TO VISIBILITY.


SDZ001>005-009-010-012>017-240100-
NORTHWEST AND NORTH CENTRAL SOUTH DAKOTA

CITY           SKY/WX    TMP DP  RH WIND       PRES   REMARKS
FAITH            N/A     58  37  45 SW13      29.66F
MOBRIDGE       CLEAR     59  40  49 S9        29.57F
$$

SDZ012>016-024>037-041>051-057-063-072>074-240100-
SOUTHWEST AND SOUTH CENTRAL SOUTH DAKOTA

CITY           SKY/WX    TMP DP  RH WIND       PRES   REMARKS
RAPID CTY ARPT CLOUDY    63  32  31 W13       29.71F
PIERRE         CLEAR     59  40  49 S7        29.64F
CUSTER         CLOUDY    50  33  52 W13G20    29.85F
ELLSWORTH AFB  CLOUDY    58  34  39 W8        29.71S
PHILIP         CLOUDY    62  40  44 SW12      29.67F
PINE RIDGE     CLOUDY    55  36  48 SW3       29.78F
SPEARFISH      FAIR      63  32  31 SW14      29.75F
WINNER         FAIR      64  40  41 SW10      29.71F
$$

SDZ004>011-016>023-039-040-240100-
NORTHEAST SOUTH DAKOTA

CITY           SKY/WX    TMP DP  RH WIND       PRES   REMARKS
ABERDEEN       CLOUDY    47  38  71 S9        29.62F
WATERTOWN      CLOUDY    48  37  65 S14       29.65F
BROOKINGS      CLOUDY    50  37  61 S12       29.70F
SISSETON         N/A     55  39  54 SW28G33   29.57F
$$

SDZ017-020-022-023-036>040-048>070-240100-
SOUTHEAST SOUTH DAKOTA

CITY           SKY/WX    TMP DP  RH WIND       PRES   REMARKS
SIOUX FALLS    CLOUDY    55  39  54 S9        29.73F
HURON          PTCLDY    53  40  61 S9        29.66F
CHAMBERLAIN    CLOUDY    58  42  56 S5        29.69F
MITCHELL       CLOUDY    60  42  51 S8        29.70F
YANKTON        CLOUDY    62  43  49 S7        29.74F
$$

ABBREVIATIONS USED IN REMARKS
   TC - TEMPERATURE IN CELSIUS
  WCI - WIND CHILL INDEX
   HX - HEAT INDEX
  VSB - VISIBILITY




USA.gov is the U.S. government's official web portal to all federal, state and local government web resources and services.